Flag for France Weather past 2 weeks in Biarritz, France

Now
63 °F

Overcast.


Feels Like: 63 °F
Forecast: 61 / 72 °F
Wind: 2 mph from Southwest

Location: Biarritz Airport

Current Time: Oct 1, 2014 at 12:48:37 AM

Latest Report: Oct 1, 2014 at 12:00 AM


Visibility: 5 mi

Pressure: 30.33 "Hg

Humidity: 94%

Dew point: 61 °F

Location of BiarritzLocation

Historic Weather in Biarritz — Graph

°F

Biarritz temperature yesterday

Maximum temperature yesterday: 68 °F (at 1:00 PM)
Minimum temperature yesterday: 63 °F (at 4:30 AM)
Average temperature yesterday: 65 °F

Past Weeks' High & Low Weather Summary

 TemperatureHumidityPressure
High86 °F (Sep 16, 3:00 PM)100% (Sep 22, 5:30 AM)30.33 "Hg (Sep 22, 5:30 AM)
Low50 °F (Sep 27, 5:30 AM)30% (Sep 27, 3:30 PM)29.62 "Hg (Sep 16, 6:30 PM)
Average68 °F72%30.02 "Hg
* Reported Sep 15 11:00 PM — Sep 30 11:30 PM, Biarritz, Weather by CustomWeather, © 2014

Note: Actual official high and low records may vary slightly from our data, if they occured in-between our weather recording intervals... More about our weather records

Advertising

Biarritz weather history for previous 24 hours

 ConditionsComfort  
Time TempWeatherWind HumidityBarometerVisibility
11:30 PM
Sep 30
63 °FOvercast.1 mph94%30.33 "HgN/A
10:30 PM63 °FPassing clouds.No wind94%30.33 "HgN/A
10:00 PM63 °FOvercast.No wind94%30.33 "HgN/A
9:30 PM63 °FOvercast.No wind94%30.33 "HgN/A
9:00 PM64 °FPassing clouds.No wind88%30.33 "HgN/A
8:30 PM64 °FClear.No wind88%30.30 "HgN/A
8:00 PM64 °FSunny.1 mph88%30.30 "Hg10 mi
7:30 PM66 °FSunny.2 mph83%30.30 "Hg10 mi
7:00 PM68 °FSunny.5 mph78%30.30 "Hg10 mi
6:30 PM68 °FScattered clouds.3 mph78%30.30 "HgN/A
6:00 PM68 °FScattered clouds.5 mph78%30.30 "HgN/A
5:30 PM68 °FBroken clouds.6 mph78%30.30 "HgN/A
5:00 PM68 °FPartly sunny.3 mph73%30.30 "HgN/A
4:30 PM68 °FPartly sunny.5 mph73%30.30 "HgN/A
4:00 PM68 °FPartly sunny.3 mph78%30.30 "HgN/A
3:30 PM68 °FBroken clouds.5 mph73%30.30 "HgN/A
3:00 PM68 °FBroken clouds.3 mph78%30.30 "HgN/A
2:30 PM68 °FBroken clouds.2 mph78%30.30 "HgN/A
2:00 PM68 °FBroken clouds.2 mph78%30.33 "HgN/A
1:30 PM68 °FBroken clouds.2 mph73%30.33 "HgN/A
1:00 PM68 °FBroken clouds.3 mph73%30.33 "HgN/A
12:30 PM66 °FBroken clouds.2 mph83%30.33 "HgN/A
12:00 PM66 °FPartly sunny.3 mph83%30.30 "HgN/A
11:30 AM66 °FPartly sunny.3 mph83%30.30 "HgN/A
11:00 AM66 °FPartly sunny.3 mph83%30.30 "HgN/A
10:30 AM64 °FBroken clouds.1 mph88%30.30 "HgN/A
10:00 AM64 °FFog.No wind94%30.30 "HgN/A
9:30 AM64 °FPartly sunny.No wind88%30.27 "HgN/A
9:00 AM63 °FPassing clouds.1 mph94%30.27 "Hg4 mi
8:30 AM63 °FPassing clouds.2 mph94%30.27 "Hg4 mi
8:00 AM63 °FPassing clouds.No wind94%30.27 "Hg3 mi
7:37 AM63 °FPassing clouds.1 mph94%30.27 "Hg3 mi
7:00 AM63 °FPassing clouds.No wind94%30.27 "Hg4 mi
6:30 AM63 °FPartly cloudy.2 mph94%30.27 "Hg4 mi
6:00 AM63 °FPartly cloudy.2 mph94%30.27 "Hg4 mi
5:30 AM63 °FFog.No wind94%30.27 "Hg3 mi
5:00 AM63 °FLight rain. Mostly cloudy.3 mph94%30.27 "Hg4 mi
4:30 AM63 °FLight rain. Fog.1 mph100%30.27 "Hg3 mi
4:00 AM64 °FLight rain. Fog.3 mph94%30.27 "Hg3 mi
3:30 AM64 °FHeavy rain. Fog.3 mph94%30.27 "Hg1 mi
3:00 AM64 °FFog.5 mph100%30.27 "Hg2 mi
2:30 AM64 °FPartly cloudy.2 mph100%30.24 "Hg4 mi
2:00 AM64 °FFog.2 mph100%30.24 "Hg3 mi
1:30 AM66 °FFog.2 mph94%30.24 "Hg2 mi
1:00 AM66 °FFog.2 mph94%30.27 "Hg3 mi
12:30 AM66 °FFog.2 mph94%30.27 "Hg3 mi
12:00 AM66 °FFog.3 mph94%30.27 "Hg3 mi
Weather by CustomWeather, © 2014

See weather overviewHow to use our weather pages